[[{"header":{"parameterUnit":"m.s-1","parameterCategory":1,"la1":30.2992,"la2":30.254,"lo1":-89.0895,"lo2":-89.0443,"dy":0.0025,"dx":0.0025,"nx":19,"ny":19,"refTime":"2026-04-16T21:00:00:Z","depth":0,"parameterNumber":2,"parameterNumberName":"U-component_of_WINDS"},"data":[0,0,0,1.3699,1.37,1.3757,1.3757,1.3826,1.3827,0,0,0,0,0,0,0,0,0,0,0,1.3682,1.3683,1.3699,1.37,1.3757,1.3757,1.3826,1.3827,0,0,0,0,0,0,0,0,0,0,0,1.3682,1.3683,1.3683,1.3701,1.3757,1.3757,1.3826,1.3784,0,0,0,0,0,0,0,0,0,0,1.3729,1.3715,1.3682,1.3683,1.3701,1.3757,1.3757,1.3782,1.3787,1.38,0,1.3814,0,1.3822,1.3832,1.3832,0,0,0,1.37,1.3711,1.3726,1.3683,1.3701,1.3757,1.3731,1.3785,1.379,1.3806,1.3815,1.3817,1.3823,1.3832,1.3832,1.3913,1.3914,0,0,1.3697,1.3692,1.3723,1.373,1.3723,1.373,1.3733,1.3788,1.3796,1.3815,1.3819,1.3824,1.3833,1.3833,1.3913,1.3914,0,0,0,1.3688,1.369,1.3704,1.3727,1.3737,1.3731,1.3735,1.3794,1.3799,1.382,1.3825,1.3833,1.3834,1.3913,1.3913,1.3928,0,0,0,1.3686,1.3685,1.3703,1.37,1.3736,1.3767,1.374,1.3795,1.3801,1.3824,1.3833,1.3834,1.3912,1.3913,1.3927,1.3935,0,0,0,1.3678,1.3684,1.3693,1.37,1.3725,1.3766,1.3774,1.3796,1.3804,1.3832,1.3835,1.3912,1.3913,1.3925,1.3933,1.3953,0,0,0,1.3669,1.3705,1.3693,1.3735,1.3724,1.3776,1.3774,1.3812,1.3838,1.3833,1.3912,1.3913,1.3925,1.3932,1.3952,1.3968,1.3976,0,0,1.3712,1.371,1.3736,1.3726,1.3779,1.3767,1.3821,1.3849,1.3855,1.3893,1.3895,1.3927,1.3933,1.3953,1.402,1.4025,0,0,0,1.3748,1.3766,1.3781,1.3805,1.3828,1.3846,1.3866,1.3876,1.3909,1.3874,1.3941,1.3945,1.3957,1.3964,1.3969,1.3979,1.3917,1.3917,1.3917,1.3802,1.3808,1.385,1.3863,1.3887,1.3906,1.3925,1.3941,1.3941,1.3956,1.3967,1.4007,1.4016,1.4019,1.4029,1.3978,1.3978,1.3978,1.3978,1.3864,1.3889,1.3888,1.3928,1.3934,1.3966,1.3986,1.3984,1.4014,1.4,1.401,1.3992,1.4025,1.4034,1.3979,1.3979,1.3979,1.3979,1.3979,1.3899,1.3912,1.3924,1.3959,1.3984,1.3996,1.4024,1.4029,1.4033,1.4044,1.4054,1.4054,1.4052,1.4049,1.4049,1.4049,1.405,1.405,1.405,1.3929,1.3942,1.3966,1.3992,1.4007,1.4028,1.4047,1.4061,1.4078,1.4079,1.4079,1.4075,1.4028,1.4015,1.4052,1.4051,1.4051,1.4051,1.4051,1.3986,1.3974,1.4011,1.4026,1.4056,1.4079,1.4085,1.4114,1.4127,1.414,1.4135,1.41,1.4098,1.4094,1.4083,1.4135,1.4135,1.4135,1.4135,1.4013,1.4013,1.4051,1.4075,1.4099,1.4108,1.4146,1.4161,1.4173,1.4181,1.4174,1.4161,1.4157,1.4157,1.4152,1.4141,1.4207,1.4207,1.4207,1.4047,1.405,1.4083,1.4096,1.412,1.4138,1.4174,1.42,1.4212,1.421,1.4186,1.4183,1.4161,1.4154,1.4151,1.4143,1.4124,0,0]},{"header":{"parameterUnit":"m.s-1","parameterCategory":1,"la1":30.2992,"la2":30.254,"lo1":-89.0895,"lo2":-89.0443,"dy":0.0025,"dx":0.0025,"nx":19,"ny":19,"refTime":"2026-04-16T21:00:00:Z","depth":0,"parameterNumber":3,"parameterNumberName":"V-component_of_WINDS"},"data":[0,0,0,1.5254,1.5256,1.5366,1.5367,1.5501,1.5503,0,0,0,0,0,0,0,0,0,0,0,1.5217,1.5218,1.5253,1.5256,1.5366,1.5367,1.5501,1.5503,0,0,0,0,0,0,0,0,0,0,0,1.5217,1.5218,1.5219,1.5257,1.5366,1.5367,1.5501,1.542,0,0,0,0,0,0,0,0,0,0,1.5314,1.5277,1.5218,1.5219,1.5257,1.5366,1.5367,1.5416,1.5425,1.5449,0,1.5469,0,1.5488,1.5511,1.5512,0,0,0,1.5259,1.527,1.5302,1.5219,1.5258,1.5366,1.5317,1.5421,1.5431,1.546,1.5471,1.5476,1.549,1.5512,1.5513,1.5638,1.5638,0,0,1.5253,1.5235,1.5295,1.5309,1.5291,1.5314,1.5321,1.5427,1.5438,1.5471,1.5479,1.5492,1.5513,1.5514,1.5638,1.5638,0,0,0,1.5234,1.5231,1.5261,1.5303,1.5323,1.5317,1.5325,1.5433,1.5444,1.5481,1.5494,1.5514,1.5515,1.5637,1.5638,1.5642,0,0,0,1.523,1.522,1.5259,1.5249,1.5321,1.538,1.5328,1.5437,1.5449,1.5493,1.5514,1.5516,1.5637,1.5638,1.5641,1.5647,0,0,0,1.5211,1.5217,1.5232,1.5248,1.5294,1.5378,1.5396,1.544,1.5457,1.5512,1.5517,1.5636,1.5637,1.564,1.5645,1.5674,0,0,0,1.5187,1.5235,1.5232,1.5291,1.5293,1.538,1.5395,1.5461,1.5508,1.5514,1.5637,1.5638,1.564,1.5644,1.5673,1.5694,1.5702,0,0,1.5238,1.5241,1.5277,1.5277,1.5359,1.5364,1.5448,1.5508,1.553,1.5601,1.5604,1.5641,1.5645,1.5674,1.5751,1.5757,0,0,0,1.5287,1.5313,1.5339,1.5382,1.5429,1.5469,1.5518,1.5541,1.5601,1.5563,1.566,1.5663,1.5681,1.5692,1.5697,1.5712,1.5642,1.5642,1.5642,1.5335,1.5359,1.542,1.5457,1.5499,1.5549,1.5585,1.5623,1.5637,1.5659,1.568,1.5724,1.5736,1.574,1.5756,1.5694,1.5694,1.5694,1.5694,1.5412,1.5452,1.5466,1.5531,1.5556,1.5611,1.566,1.5667,1.5721,1.571,1.5727,1.5713,1.5746,1.5761,1.5695,1.5694,1.5694,1.5694,1.5694,1.5445,1.5468,1.5494,1.5558,1.5605,1.5641,1.5692,1.5713,1.5734,1.5751,1.5774,1.5774,1.5777,1.576,1.5761,1.5761,1.5761,1.5761,1.5761,1.547,1.5498,1.5538,1.559,1.562,1.5663,1.5712,1.5742,1.5781,1.5793,1.5793,1.5803,1.5745,1.5729,1.5764,1.5763,1.5763,1.5763,1.5762,1.5538,1.5526,1.5587,1.5617,1.568,1.5724,1.575,1.581,1.5838,1.5862,1.5868,1.5822,1.5826,1.5822,1.581,1.5863,1.5863,1.5863,1.5863,1.5566,1.557,1.5637,1.5683,1.5731,1.576,1.5828,1.5867,1.5904,1.5923,1.5919,1.5903,1.5899,1.5906,1.5901,1.5889,1.5962,1.5962,1.5962,1.5609,1.5618,1.5672,1.5708,1.5758,1.58,1.5865,1.5917,1.5957,1.5966,1.5938,1.5934,1.591,1.5901,1.5909,1.59,1.5879,0,0]}]]